sat.trackr.live / text

‹ back to catalog

STARLINK-11328 [DTC]

NORAD 61880 · 2024-204G

PAYLOAD ACTIVE UNKNOWN

§ Identity

Operator
Country
US
Launch date
2024-11-09
Launch site
AFWTR
Launch vehicle
Mass (kg)
RCS (m²)

Purposes: comms

External: N2YO · Heavens-Above · Gunter

§ Orbital elements

Epoch: 2026-09-21T20:29:13.990560Z

Period
91.74 min
Inclination
53.1593°
Eccentricity
0.0001050
Mean motion
15.69707776 rev/d
Perigee alt
359.0 km
Apogee alt
360.4 km
Semi-major
6,737.9 km
B*
2.9682e-6
RAAN
109.2997°
Arg perigee
70.5565°
Mean anomaly
289.5567°
Rev number
10,772

§ Raw data

STARLINK-11328 [DTC]1 61880U 24204G   26264.85363415 -.00000229  00000+0  29682-5 0  99952 61880  53.1593 109.2997 0001050  70.5565 289.5567 15.69707776107726

JSON: /api/v1/satellites/61880 · /tle

For live sub-satellite position, see the globe view (requires WebGL).

§ Visibility from observer

Set your observer location to see the next 7 days of passes ≥ 10°. The values pass through the URL so the page stays shareable.

No JS? Fill the form by hand. The geolocation button needs JavaScript.